星链-5784 (STARLINK-5784 )

导读 | 豆包AI

STARLINK-5784是美国太空探索技术公司(SpaceX)星链互联网卫星集群中的一员,于2023年3月24日发射升空,属于星链项目批量发射的组网卫星,主要为全球范围提供低延迟、高速率的宽带互联网服务,进一步扩展了星链星座的覆盖能力与服务规模,推进了星链全球卫星互联网组网进程。

Basic Information
目录编号:
56033
目录名称:
STARLINK-5784
国际标识:
2023-042AZ
轨道中心:
EARTH
卫星名称:
星链-5784
卫星全名:
星链-5784 (STARLINK-5784 )
卫星状态:
已陨落 最后检测时间 2025-01-03
发射日期:
2023-03-24 UTC
国别 :
美国 (US)
星等 :
--
Orbit Information
数据来源 国际轨道数据
星历时间: 2025-01-02T15:13:14+0800
轨道信息已过期437天
半长轴: 6563.102km
偏心率: 0.0008422
轨道倾角: 42.987°
近地点辐角 307.421°
升交点赤经 200.197°
平近点角 203.023°
近地点: 179.439km
远地点: 190.495km
周期: 88.191分钟
每日圈数: 16.328229
Detailed Information
固有亮度:
5
最大亮度:
2.5
卫星平台:
Starlink v1.5
覆盖范围:
全球
运营商:
太空探索技术公司
运营商所在国:
美国
制造商(研发单位):
太空探索技术公司
制造商所在国:
美国
使用方式:
暂无
Satellite Introduction
星链(Starlink)计划是由太空探索技术公司(SpaceX)提出的一个巨型低轨卫星互联网星座项目,计划在2019年至2024年间在太空搭建由约1.2万颗卫星组成的“星链”网络,其中1584颗将部署在地球上空550千米处的近地轨道,并从2020年开始工作。该卫星仍在工作。